Location: High Cliff State Park
(44.1557°N, 88.2948°W)
Time: 15:15:34
(UTC-06:00)

Amateur Radio Satellites - All Passes

Search period start: 09 December 2016 14:45
Search period end: 10 December 2016 14:45
Location: High Cliff State Park, 44.1557°N, 88.2948°W

Satellite Date Start Highest point End Downlink Frequencies (MHz)
Time Altitude Azimuth
Cosmos 2491 09 Dec 15:19:12 15:23:38 15° 54° (NE) 15:28:03 435.465 / 435.565
SWISSCUBE 09 Dec 15:29:14 15:33:29 33° 293° (WNW) 15:37:42 437.505
BEESAT 09 Dec 15:32:50 15:37:07 34° 292° (WNW) 15:41:21 436.000
Cubesat XI-IV 09 Dec 15:35:14 15:37:13 12° 55° (NE) 15:39:11 437.490
AUBIESAT-1 09 Dec 15:40:55 15:45:10 39° 296° (WNW) 15:49:14 437.475
BRITE-PL 09 Dec 15:45:25 15:49:35 43° 70° (ENE) 15:54:07 437.365/2234.400
AIST 2 09 Dec 15:46:47 15:51:01 77° 237° (WSW) 15:55:14 435.215
NOAA 18 09 Dec 15:50:24 15:52:18 12° 53° (NE) 15:54:12 137.9125
M-CUBED/EXP-1 PRIME 09 Dec 15:56:57 16:00:43 25° 301° (WNW) 16:04:21 437.505
STARS 09 Dec 16:00:52 16:04:35 26° 95° (E) 16:08:18 437.465
MOZHAYETS 4 09 Dec 16:03:51 16:08:19 56° 287° (WNW) 16:12:47
ITUPSAT 1 09 Dec 16:03:53 16:07:12 19° 298° (WNW) 16:10:33 437.325
KKS-1 09 Dec 16:05:24 16:09:52 62° 102° (ESE) 16:14:17 437.445
CUBESAT XI-V 09 Dec 16:17:13 16:21:23 31° 96° (E) 16:25:32 437.345
HORYU 2 09 Dec 16:18:41 16:23:09 79° 76° (ENE) 16:27:39 437.375
ISS 09 Dec 16:20:33 16:23:37 36° 340° (NNW) 16:26:43 145.825
O/OREOS (USA 219) 09 Dec 16:22:26 16:26:07 24° 305° (NW) 16:29:49 437.305
RS-15 09 Dec 16:23:44 16:35:49 63° 245° (WSW) 16:47:30 29.354- 29.394
AO-7 09 Dec 16:28:26 16:33:54 19° 271° (W) 16:39:24 29.400- 29.500
DOVE 4 09 Dec 16:29:43 16:33:45 25° 64° (ENE) 16:37:57 437.250
GOMX 1 09 Dec 16:38:33 16:43:12 64° 73° (ENE) 16:48:13 467.674
HO-68 09 Dec 16:39:28 16:43:17 15° 49° (NE) 16:47:04 435.675
LilacSat-2 09 Dec 16:41:33 16:45:03 34° 71° (ENE) 16:48:32 437.200
CUTE-I 09 Dec 16:44:05 16:49:09 45° 69° (ENE) 16:54:14 437.470
NOAA 15 09 Dec 16:53:46 16:58:54 59° 71° (ENE) 17:04:05 137.62
Cubesat XI-IV 09 Dec 17:11:01 17:16:22 75° 73° (ENE) 17:21:46 437.490
Cosmos 2491 09 Dec 17:13:47 17:22:29 66° 78° (ENE) 17:31:07 435.465 / 435.565
CINEMA 3 09 Dec 17:19:34 17:23:18 22° 64° (ENE) 17:27:03 145.822/145.860
BRITE-PL 09 Dec 17:25:09 17:28:23 20° 270° (W) 17:31:48 437.365/2234.400
NOAA 18 09 Dec 17:26:27 17:31:57 70° 72° (ENE) 17:37:30 137.9125
STARS 09 Dec 17:37:02 17:40:56 31° 293° (WNW) 17:44:50 437.465
YUBILEINY 09 Dec 17:41:39 17:49:29 40° 86° (E) 17:57:23 435.215
KKS-1 09 Dec 17:43:19 17:45:56 15° 299° (WNW) 17:48:31 437.445
CUBESAT XI-V 09 Dec 17:54:39 17:58:41 30° 292° (WNW) 18:02:43 437.345
CUTE 1.7 + AOD 2 09 Dec 17:54:48 17:58:09 23° 67° (ENE) 18:01:29 437.475
PCSat 09 Dec 17:56:31 18:00:37 21° 41° (NE) 18:04:43 145.827
ISS 09 Dec 17:58:07 18:00:45 21° 360° (N) 18:03:24 145.825
HORYU 2 09 Dec 17:59:09 18:00:15 11° 271° (W) 18:01:21 437.375
DOVE 4 09 Dec 18:06:29 18:11:09 43° 263° (W) 18:16:05 437.250
CANX-2 09 Dec 18:12:57 18:16:54 41° 71° (ENE) 18:20:52 2200.000
Cosmos 2504 09 Dec 18:13:13 18:20:24 32° 82° (E) 18:27:50 435.465 / 435.565
STRAND 1 09 Dec 18:16:42 18:20:24 20° 92° (E) 18:24:04 437.568
LilacSat-2 09 Dec 18:16:44 18:19:26 18° 267° (W) 18:22:07 437.200
GOMX 1 09 Dec 18:19:04 18:21:51 15° 273° (W) 18:24:44 467.674
HO-68 09 Dec 18:22:37 18:29:42 68° 69° (ENE) 18:36:51 435.675
CUTE-I 09 Dec 18:24:57 18:29:22 26° 266° (W) 18:33:49 437.470
SO-50 09 Dec 18:28:20 18:32:39 35° 116° (ESE) 18:36:56 436.795
SEEDS 09 Dec 18:29:58 18:33:47 37° 71° (ENE) 18:37:37 437.485
COMPASS 1 09 Dec 18:32:57 18:36:26 27° 68° (ENE) 18:39:55 437.405
NOAA 15 09 Dec 18:35:28 18:39:05 19° 269° (W) 18:42:43 137.62
RS-15 09 Dec 18:40:11 18:45:32 14° 267° (W) 18:50:51 29.354- 29.394
CUBEBUG 2 09 Dec 18:46:12 18:50:33 37° 70° (ENE) 18:54:52 437.445
Oscar 11 09 Dec 18:48:44 18:50:59 14° 62° (ENE) 18:53:15 145.826/435.025
Cubesat XI-IV 09 Dec 18:53:59 18:57:01 15° 271° (W) 19:00:04 437.490
CINEMA 3 09 Dec 18:55:10 19:00:02 52° 261° (W) 19:04:58 145.822/145.860
AIST 1 09 Dec 18:58:11 19:02:26 60° 95° (E) 19:06:45
NOAA 18 09 Dec 19:09:32 19:13:07 17° 269° (W) 19:16:44 137.9125
Cosmos 2491 09 Dec 19:11:36 19:18:37 28° 279° (W) 19:25:37 435.465 / 435.565
UWE-3 09 Dec 19:19:50 19:24:20 52° 73° (ENE) 19:28:46 435.000/436.395/437.385
CUSAT 1 09 Dec 19:26:29 19:30:23 66° 80° (E) 19:35:32 437.405
CUTE 1.7 + AOD 2 09 Dec 19:30:02 19:33:50 32° 264° (W) 19:37:38 437.475
AAUSAT CUBESAT 2 09 Dec 19:33:08 19:37:14 84° 260° (W) 19:41:22 437.432
ISS 09 Dec 19:34:49 19:37:54 35° 20° (NNE) 19:40:59 145.825
YUBILEINY 09 Dec 19:37:45 19:46:05 49° 286° (WNW) 19:54:33 435.215
PCSat 09 Dec 19:39:13 19:44:40 79° 241° (WSW) 19:50:04 145.827
CANX-2 09 Dec 19:50:01 19:52:56 18° 268° (W) 19:55:52 2200.000
ZACube-1 09 Dec 19:51:33 19:56:04 70° 75° (ENE) 20:00:30 437.345
STRAND 1 09 Dec 19:54:56 19:59:54 53° 289° (WNW) 20:04:50 437.568
DELFI C3 09 Dec 19:56:38 19:59:47 24° 67° (ENE) 20:02:57 145.870
FUNcube-1 09 Dec 19:56:51 20:01:20 73° 74° (ENE) 20:05:45 145.935
Cosmos 2504 09 Dec 20:04:47 20:13:11 62° 283° (WNW) 20:22:01 435.465 / 435.565
SEEDS 09 Dec 20:06:32 20:09:36 20° 267° (W) 20:12:41 437.485
COMPASS 1 09 Dec 20:08:25 20:11:56 27° 265° (W) 20:15:27 437.405
SO-50 09 Dec 20:08:46 20:13:07 34° 314° (NW) 20:17:25 436.795
HO-68 09 Dec 20:12:19 20:17:58 25° 268° (W) 20:23:40 435.675
Oscar 11 09 Dec 20:22:21 20:26:37 63° 259° (WSW) 20:30:54 145.826/435.025
CUBEBUG 2 09 Dec 20:23:19 20:27:14 25° 266° (W) 20:31:06 437.445
PRISM 09 Dec 20:31:18 20:34:55 28° 96° (E) 20:38:30 437.425
AIST 1 09 Dec 20:38:18 20:40:29 13° 293° (WNW) 20:42:40
HUMSAT D 09 Dec 20:43:14 20:47:12 42° 71° (ENE) 20:51:08 437.325/437.525
DANDE 09 Dec 20:53:48 20:56:43 46° 261° (W) 21:00:21 436.750
UWE-3 09 Dec 20:58:01 21:01:03 17° 269° (W) 21:04:05 435.000/436.395/437.385
CUSAT 1 09 Dec 21:10:42 21:12:08 11° 269° (W) 21:13:41 437.405
ISS 09 Dec 21:11:17 21:14:29 44° 218° (SW) 21:17:39 145.825
TIGRISAT 09 Dec 21:13:04 21:16:02 18° 92° (E) 21:18:57 435.000
ANTELSAT 09 Dec 21:15:27 21:18:40 20° 92° (E) 21:21:50 437.575/2403.000
PCSat 09 Dec 21:25:49 21:27:07 11° 259° (WSW) 21:28:25 145.827
ESTCUBE 1 09 Dec 21:29:15 21:32:42 22° 65° (ENE) 21:36:10 437.505/2401.250
ZACube-1 09 Dec 21:30:53 21:32:47 12° 271° (W) 21:34:40 437.345
DELFI C3 09 Dec 21:31:05 21:34:28 28° 264° (W) 21:37:54 145.870
CUBEBUG 1 09 Dec 21:33:43 21:36:18 16° 62° (ENE) 21:38:55 437.445
FUNcube-1 09 Dec 21:36:26 21:38:02 12° 271° (W) 21:39:37 145.935
VELOX 1 09 Dec 21:55:04 21:58:03 18° 63° (ENE) 22:01:02 145.980
DX 1 09 Dec 21:57:04 21:57:30 10° 58° (ENE) 21:57:56 434.975-435.025
SPROUT 09 Dec 21:58:01 21:59:48 12° 60° (ENE) 22:01:33 437.525
Cosmos 2504 09 Dec 22:04:24 22:08:43 14° 307° (NW) 22:13:08 435.465 / 435.565
PRISM 09 Dec 22:06:36 22:10:08 27° 293° (WNW) 22:13:39 437.425
UNISAT 6 09 Dec 22:19:58 22:24:22 83° 284° (WNW) 22:28:39 437.425
HUMSAT D 09 Dec 22:20:12 22:22:59 17° 268° (W) 22:25:48 437.325/437.525
GONETS M04 09 Dec 22:23:31 22:28:29 17° 75° (ENE) 22:33:25
QB50P1 09 Dec 22:26:14 22:28:05 13° 90° (E) 22:29:55 145.935-145.965
JAS-2 09 Dec 22:27:00 22:31:14 24° 94° (E) 22:35:40 435.910
POPSAT HIP 1 09 Dec 22:47:04 22:50:18 21° 93° (E) 22:53:29 437.405
PHONESAT 2.4 09 Dec 22:47:34 22:49:36 20° 162° (SSE) 22:51:38 2401.200-2431.200
TIGRISAT 09 Dec 22:48:48 22:52:58 44° 289° (WNW) 22:57:02 435.000
ANTELSAT 09 Dec 22:51:29 22:55:33 39° 290° (WNW) 22:59:33 437.575/2403.000
Cosmos 2499 09 Dec 22:52:53 23:00:08 31° 82° (E) 23:07:31 435.465 / 435.565
AISAT 09 Dec 22:53:02 22:57:26 70° 74° (ENE) 23:01:54 437.250
50 SAT 09 Dec 22:55:38 22:59:03 55° 73° (ENE) 23:02:30 437.505
BUGSAT 1 09 Dec 23:04:54 23:05:21 10° 88° (E) 23:05:46 437.445
ESTCUBE 1 09 Dec 23:05:04 23:09:16 39° 262° (W) 23:13:30 437.505/2401.250
TISAT 1 09 Dec 23:05:19 23:06:28 11° 59° (ENE) 23:07:38 437.305
CUBEBUG 1 09 Dec 23:07:48 23:12:07 59° 259° (W) 23:16:29 437.445
O/OREOS (USA 219) 09 Dec 23:12:43 23:15:01 14° 48° (NE) 23:17:19 437.305
UKube-1 09 Dec 23:27:15 23:31:30 63° 73° (ENE) 23:35:47 .
DX 1 09 Dec 23:28:35 23:32:56 86° 79° (E) 23:37:21 434.975-435.025
VELOX 1 09 Dec 23:29:49 23:34:07 51° 260° (W) 23:38:27 145.980
SPROUT 09 Dec 23:30:49 23:35:07 75° 258° (WSW) 23:39:27 437.525
NANOSAT C BR1 09 Dec 23:37:51 23:42:05 71° 101° (ESE) 23:46:16 145.865
QB50P2 09 Dec 23:48:00 23:52:16 77° 284° (WNW) 23:56:28 145.880/145.840
POLYITAN 1 09 Dec 23:48:24 23:52:40 81° 283° (WNW) 23:56:51 437.675
DUCHIFAT 1 09 Dec 23:57:49 00:02:03 76° 284° (WNW) 00:06:12 145.980
QB50P1 10 Dec 00:00:04 00:04:15 61° 287° (WNW) 00:08:24 145.935-145.965
JAS-2 10 Dec 00:11:38 00:16:33 44° 291° (WNW) 00:21:44 435.910
AO-85 10 Dec 00:11:46 00:16:02 30° 116° (ESE) 00:20:03 145.980
GONETS M04 10 Dec 00:15:08 00:23:51 82° 95° (E) 00:32:34
PHONESAT 2.4 10 Dec 00:21:57 00:24:26 36° 178° (S) 00:26:54 2401.200-2431.200
POPSAT HIP 1 10 Dec 00:22:18 00:26:11 36° 290° (WNW) 00:30:02 437.405
AISAT 10 Dec 00:32:42 00:34:23 12° 271° (W) 00:36:06 437.250
Oscar 19 10 Dec 00:36:09 00:40:33 27° 95° (E) 00:44:54 437.125/150
BUGSAT 1 10 Dec 00:37:02 00:41:13 73° 286° (WNW) 00:45:19 437.445
TISAT 1 10 Dec 00:37:12 00:41:27 83° 259° (WSW) 00:45:44 437.305
Cosmos 2499 10 Dec 00:44:00 00:52:37 65° 283° (WNW) 01:01:29 435.465 / 435.565
O/OREOS (USA 219) 10 Dec 00:50:32 00:55:02 81° 250° (WSW) 00:59:30 437.305
AUBIESAT-1 10 Dec 00:53:13 00:57:09 36° 63° (ENE) 01:01:19 437.475
SWISSCUBE 10 Dec 00:59:15 01:03:40 40° 69° (ENE) 01:08:07 437.505
BEESAT 10 Dec 01:02:50 01:07:15 39° 68° (ENE) 01:11:40 436.000
UKube-1 10 Dec 01:05:59 01:07:57 13° 270° (W) 01:09:55 .
Gurwin Techsat 1B 10 Dec 01:07:01 01:11:30 27° 94° (E) 01:15:58 435.225
M-CUBED/EXP-1 PRIME 10 Dec 01:08:54 01:13:07 63° 68° (ENE) 01:17:38 437.505
NANOSAT C BR1 10 Dec 01:15:30 01:17:14 12° 299° (WNW) 01:18:57 145.865
SO-50 10 Dec 01:19:24 01:20:48 11° 27° (NNE) 01:22:10 436.795
MOZHAYETS 4 10 Dec 01:31:25 01:34:35 19° 63° (ENE) 01:37:46
ITUPSAT 1 10 Dec 01:33:04 01:37:49 74° 74° (ENE) 01:42:36 437.325
AO-85 10 Dec 01:51:53 01:56:24 38° 312° (NW) 02:00:36 145.980
PHONESAT 2.4 10 Dec 01:57:03 01:59:17 24° 194° (SSW) 02:01:30 2401.200-2431.200
GONETS M04 10 Dec 02:15:06 02:21:45 24° 298° (WNW) 02:28:26
Oscar 19 10 Dec 02:15:07 02:19:58 41° 292° (WNW) 02:24:49 437.125/150
AUBIESAT-1 10 Dec 02:28:06 02:31:37 25° 262° (W) 02:35:19 437.475
AO-7 10 Dec 02:32:14 02:39:14 28° 94° (E) 02:46:10 29.400- 29.500
SWISSCUBE 10 Dec 02:37:46 02:41:35 24° 266° (W) 02:45:27 437.505
BEESAT 10 Dec 02:41:15 02:45:08 25° 266° (W) 02:49:01 436.000
Cosmos 2499 10 Dec 02:43:01 02:47:44 15° 306° (NW) 02:52:32 435.465 / 435.565
M-CUBED/EXP-1 PRIME 10 Dec 02:45:46 02:48:02 14° 266° (W) 02:50:24 437.505
Gurwin Techsat 1B 10 Dec 02:46:36 02:51:35 42° 292° (WNW) 02:56:33 435.225
ITAMSAT 1 10 Dec 02:52:54 02:58:01 56° 101° (E) 03:03:05 435.822/435.867
SO-50 10 Dec 02:58:00 03:02:25 47° 49° (NE) 03:06:44 436.795
STARS 10 Dec 02:58:44 03:02:34 29° 67° (ENE) 03:06:24 437.465
KKS-1 10 Dec 03:04:31 03:08:57 69° 74° (ENE) 03:13:27 437.445
MOZHAYETS 4 10 Dec 03:06:56 03:11:23 50° 261° (W) 03:15:51
ITUPSAT 1 10 Dec 03:14:04 03:16:11 13° 271° (W) 03:18:18 437.325
CUBESAT XI-V 10 Dec 03:21:52 03:26:02 36° 69° (ENE) 03:30:15 437.345
BEESAT 3 10 Dec 03:36:52 03:40:39 50° 120° (ESE) 03:44:29 437.485
BRITE-PL 10 Dec 03:48:45 03:52:12 17° 89° (E) 03:55:43 437.365/2234.400
YUBILEINY 10 Dec 03:49:43 03:56:10 22° 61° (ENE) 04:02:35 435.215
Cosmos 2504 10 Dec 04:05:07 04:08:52 13° 52° (NE) 04:12:33 435.465 / 435.565
HORYU 2 10 Dec 04:09:50 04:11:52 13° 90° (E) 04:13:54 437.375
BEESAT 2 10 Dec 04:15:39 04:19:31 60° 121° (ESE) 04:23:28 435.950
AO-7 10 Dec 04:24:17 04:32:35 69° 293° (WNW) 04:40:52 29.400- 29.500
Cosmos 2491 10 Dec 04:25:48 04:29:50 14° 73° (ENE) 04:33:52 435.465 / 435.565
ITAMSAT 1 10 Dec 04:33:15 04:37:03 21° 299° (WNW) 04:40:52 435.822/435.867
STARS 10 Dec 04:34:59 04:38:51 29° 264° (W) 04:42:45 437.465
SO-50 10 Dec 04:39:07 04:42:33 22° 248° (WSW) 04:45:57 436.795
GOMX 1 10 Dec 04:39:16 04:43:21 21° 90° (E) 04:47:23 467.674
RS-15 10 Dec 04:40:40 04:48:16 20° 97° (E) 04:56:02 29.354- 29.394
KKS-1 10 Dec 04:44:06 04:46:00 12° 271° (W) 04:47:54 437.445
CUBESAT XI-V 10 Dec 04:59:44 05:03:29 25° 266° (W) 05:07:16 437.345
CUTE-I 10 Dec 05:00:51 05:03:53 15° 89° (E) 05:06:54 437.470
AIST 1 10 Dec 05:04:19 05:07:25 18° 70° (ENE) 05:10:30
NOAA 15 10 Dec 05:08:10 05:11:56 20° 92° (E) 05:15:42 137.62
BEESAT 3 10 Dec 05:15:37 05:18:33 20° 319° (NW) 05:21:31 437.485
BRITE-PL 10 Dec 05:25:38 05:31:09 76° 285° (WNW) 05:36:50 437.365/2234.400
Cubesat XI-IV 10 Dec 05:27:16 05:31:42 26° 94° (E) 05:36:06 437.490
STRAND 1 10 Dec 05:33:43 05:38:17 34° 67° (ENE) 05:42:53 437.568
HORYU 2 10 Dec 05:44:28 05:48:51 65° 287° (WNW) 05:53:13 437.375
YUBILEINY 10 Dec 05:45:22 05:54:16 89° 262° (W) 06:03:07 435.215
LilacSat-2 10 Dec 05:47:11 05:50:47 40° 98° (E) 05:54:20 437.200
AIST 2 10 Dec 05:47:14 05:49:32 15° 110° (ESE) 05:51:53 435.215
NOAA 18 10 Dec 05:47:34 05:52:07 25° 94° (E) 05:56:36 137.9125
BEESAT 2 10 Dec 05:54:54 05:57:41 18° 320° (NW) 06:00:30 435.950
Cosmos 2504 10 Dec 05:55:53 06:04:33 59° 76° (ENE) 06:12:39 435.465 / 435.565
DOVE 4 10 Dec 06:03:34 06:08:44 51° 98° (E) 06:13:40 437.250
Cosmos 2491 10 Dec 06:16:17 06:25:00 72° 94° (E) 06:33:42 435.465 / 435.565
GOMX 1 10 Dec 06:16:21 06:21:46 59° 288° (WNW) 06:27:06 467.674
AO-7 10 Dec 06:18:43 06:23:54 18° 315° (NW) 06:29:06 29.400- 29.500
CUTE-I 10 Dec 06:39:10 06:44:30 74° 287° (WNW) 06:49:46 437.470
AIST 1 10 Dec 06:41:03 06:45:14 43° 267° (W) 06:49:23
RS-15 10 Dec 06:46:49 06:58:34 78° 119° (ESE) 07:10:51 29.354- 29.394
NOAA 15 10 Dec 06:46:54 06:52:05 58° 289° (WNW) 06:57:15 137.62
CINEMA 3 10 Dec 06:48:49 06:53:10 35° 95° (E) 06:57:18 145.822/145.860
BRITE-PL 10 Dec 07:06:23 07:08:46 13° 302° (WNW) 07:11:10 437.365/2234.400
Cubesat XI-IV 10 Dec 07:06:54 07:11:56 43° 291° (WNW) 07:16:56 437.490
STRAND 1 10 Dec 07:12:53 07:17:27 32° 264° (W) 07:22:02 437.568
CUTE 1.7 + AOD 2 10 Dec 07:12:54 07:16:48 36° 97° (E) 07:20:42 437.475
AAUSAT CUBESAT 2 10 Dec 07:15:12 07:17:19 14° 90° (E) 07:19:24 437.432
PRISM 10 Dec 07:22:11 07:25:32 25° 67° (ENE) 07:28:53 437.425
LilacSat-2 10 Dec 07:22:28 07:24:45 16° 295° (WNW) 07:27:02 437.200
AIST 2 10 Dec 07:23:28 07:27:32 59° 308° (NW) 07:31:41 435.215
NOAA 18 10 Dec 07:27:40 07:32:59 48° 292° (WNW) 07:38:14 137.9125
CANX-2 10 Dec 07:31:42 07:35:56 68° 101° (E) 07:40:09 2200.000
HO-68 10 Dec 07:36:06 07:43:15 62° 103° (ESE) 07:50:22 435.675
ZACube-1 10 Dec 07:40:54 07:42:04 11° 88° (E) 07:43:13 437.345
DOVE 4 10 Dec 07:41:56 07:46:01 23° 297° (WNW) 07:50:00 437.250
YUBILEINY 10 Dec 07:44:04 07:49:46 19° 284° (WNW) 07:55:28 435.215
FUNcube-1 10 Dec 07:45:38 07:47:01 11° 89° (E) 07:48:24 145.935
UNISAT 6 10 Dec 07:46:03 07:48:06 13° 60° (ENE) 07:50:09 437.425
SEEDS 10 Dec 07:47:17 07:51:27 59° 100° (E) 07:55:35 437.485
COMPASS 1 10 Dec 07:48:48 07:52:46 40° 98° (E) 07:56:42 437.405
Cosmos 2504 10 Dec 07:49:59 07:57:24 33° 277° (W) 08:04:27 435.465 / 435.565
Oscar 11 10 Dec 08:08:35 08:11:52 21° 93° (E) 08:15:07 145.826/435.025
CUBEBUG 2 10 Dec 08:11:50 08:16:11 64° 101° (ESE) 08:20:22 437.445
TIGRISAT 10 Dec 08:12:50 08:16:20 22° 65° (ENE) 08:19:49 435.000
ANTELSAT 10 Dec 08:15:20 08:19:02 24° 66° (ENE) 08:22:41 437.575/2403.000
Cosmos 2491 10 Dec 08:15:30 08:22:40 27° 296° (WNW) 08:29:51 435.465 / 435.565
CUTE-I 10 Dec 08:21:53 08:23:36 12° 305° (NW) 08:25:20 437.470
CINEMA 3 10 Dec 08:26:11 08:30:08 26° 294° (WNW) 08:33:55 145.822/145.860
CUSAT 1 10 Dec 08:32:36 08:35:21 49° 99° (E) 08:37:54 437.405
AO-85 10 Dec 08:41:40 08:45:22 34° 47° (NE) 08:48:57 145.980
JAS-2 10 Dec 08:43:15 08:46:19 15° 58° (ENE) 08:49:15 435.910
Cosmos 2499 10 Dec 08:44:11 08:46:56 12° 50° (NE) 08:49:38 435.465 / 435.565
UWE-3 10 Dec 08:44:18 08:48:36 88° 284° (WNW) 08:52:46 435.000/436.395/437.385
AAUSAT CUBESAT 2 10 Dec 08:49:03 08:53:07 54° 286° (WNW) 08:57:10 437.432
CUTE 1.7 + AOD 2 10 Dec 08:49:12 08:52:26 22° 294° (WNW) 08:55:40 437.475
PRISM 10 Dec 08:57:09 09:00:42 29° 263° (W) 09:04:19 437.425
RS-15 10 Dec 09:01:01 09:12:16 43° 326° (NNW) 09:23:54 29.354- 29.394
AIST 2 10 Dec 09:05:31 09:06:54 11° 328° (NNW) 09:08:18 435.215
DELFI C3 10 Dec 09:06:18 09:09:51 30° 96° (E) 09:13:24 145.870
CANX-2 10 Dec 09:09:24 09:11:14 13° 299° (WNW) 09:13:06 2200.000
QB50P2 10 Dec 09:09:47 09:10:41 11° 59° (ENE) 09:11:35 145.880/145.840
POLYITAN 1 10 Dec 09:10:44 09:11:06 10° 59° (ENE) 09:11:27 437.675
ZACube-1 10 Dec 09:14:39 09:18:51 67° 285° (WNW) 09:22:57 437.345
DUCHIFAT 1 10 Dec 09:18:57 09:19:47 10° 59° (ENE) 09:20:38 145.980
UNISAT 6 10 Dec 09:19:30 09:24:11 81° 256° (WSW) 09:28:49 437.425
FUNcube-1 10 Dec 09:19:34 09:23:43 64° 286° (WNW) 09:27:48 145.935
QB50P1 10 Dec 09:20:28 09:22:25 13° 61° (ENE) 09:24:22 145.935-145.965
SEEDS 10 Dec 09:24:27 09:26:40 14° 297° (WNW) 09:28:54 437.485
HO-68 10 Dec 09:24:30 09:30:31 30° 302° (WNW) 09:36:31 435.675
COMPASS 1 10 Dec 09:25:04 09:28:02 19° 295° (WNW) 09:31:00 437.405
POPSAT HIP 1 10 Dec 09:41:05 09:44:15 20° 65° (ENE) 09:47:25 437.405
Oscar 11 10 Dec 09:44:08 09:48:07 37° 290° (WNW) 09:52:05 145.826/435.025
TIGRISAT 10 Dec 09:48:16 09:52:44 44° 261° (W) 09:57:10 435.000
CUBEBUG 2 10 Dec 09:50:04 09:52:14 14° 299° (WNW) 09:54:22 437.445
ANTELSAT 10 Dec 09:51:09 09:55:31 39° 262° (W) 09:59:52 437.575/2403.000
BUGSAT 1 10 Dec 09:56:18 09:57:05 10° 59° (ENE) 09:57:51 437.445
HUMSAT D 10 Dec 10:00:10 10:04:13 65° 101° (E) 10:08:16 437.325/437.525
DANDE 10 Dec 10:04:38 10:08:23 40° 281° (WNW) 10:11:24 436.750
PCSat 10 Dec 10:21:58 10:27:20 72° 118° (ESE) 10:32:46 145.827
AO-85 10 Dec 10:22:26 10:25:34 23° 246° (WSW) 10:28:38 145.980
GONETS M04 10 Dec 10:23:37 10:31:53 44° 72° (ENE) 10:40:07
JAS-2 10 Dec 10:24:33 10:30:48 89° 67° (ENE) 10:36:23 435.910
NANOSAT C BR1 10 Dec 10:30:55 10:35:08 63° 73° (ENE) 10:39:22 145.865
Cosmos 2499 10 Dec 10:34:06 10:42:29 55° 75° (ENE) 10:50:12 435.465 / 435.565
DELFI C3 10 Dec 10:41:23 10:44:31 23° 293° (WNW) 10:47:40 145.870
QB50P2 10 Dec 10:41:30 10:45:48 87° 256° (WSW) 10:50:07 145.880/145.840
POLYITAN 1 10 Dec 10:41:53 10:46:11 89° 89° (E) 10:50:30 437.675
AISAT 10 Dec 10:43:39 10:45:22 12° 89° (E) 10:47:04 437.250
DUCHIFAT 1 10 Dec 10:50:31 10:54:47 87° 254° (WSW) 10:59:04 145.980
QB50P1 10 Dec 10:53:22 10:57:38 69° 258° (WSW) 11:01:55 145.935-145.965
CUBEBUG 1 10 Dec 10:55:16 10:58:48 23° 94° (E) 11:02:19 437.445
ESTCUBE 1 10 Dec 10:55:40 10:59:53 37° 97° (E) 11:04:04 437.505/2401.250
BEESAT 2 10 Dec 10:56:20 10:57:20 11° 32° (NNE) 10:58:21 435.950
POPSAT HIP 1 10 Dec 11:15:43 11:19:45 40° 262° (W) 11:23:49 437.405
SPROUT 10 Dec 11:16:09 11:18:56 17° 91° (E) 11:21:42 437.525
DX 1 10 Dec 11:16:52 11:19:01 13° 90° (E) 11:21:09 434.975-435.025
VELOX 1 10 Dec 11:18:31 11:22:18 26° 95° (E) 11:26:03 145.980
RS-15 10 Dec 11:19:05 11:29:13 28° 0° (N) 11:39:23 29.354- 29.394
BUGSAT 1 10 Dec 11:27:30 11:31:45 88° 257° (WSW) 11:36:02 437.445
HUMSAT D 10 Dec 11:37:39 11:39:19 12° 298° (WNW) 11:40:59 437.325/437.525
AO-7 10 Dec 11:46:52 11:49:44 12° 38° (NE) 11:52:35 29.400- 29.500
BEESAT 3 10 Dec 11:52:19 11:56:13 49° 51° (NE) 12:00:05 437.485
50 SAT 10 Dec 11:53:11 11:56:41 51° 100° (E) 12:00:10 437.505
Oscar 19 10 Dec 11:54:17 11:59:09 45° 69° (ENE) 12:04:03 437.125/150
PCSat 10 Dec 12:07:05 12:11:18 22° 318° (NW) 12:15:32 145.827
NANOSAT C BR1 10 Dec 12:09:26 12:11:16 12° 270° (W) 12:13:07 145.865
JAS-2 10 Dec 12:13:44 12:16:28 13° 270° (W) 12:19:05 435.910
AISAT 10 Dec 12:17:50 12:22:19 71° 286° (WNW) 12:26:45 437.250
GONETS M04 10 Dec 12:20:37 12:28:40 44° 273° (W) 12:36:46
TISAT 1 10 Dec 12:21:06 12:23:13 13° 90° (E) 12:25:18 437.305
Cosmos 2499 10 Dec 12:27:52 12:35:10 34° 277° (W) 12:42:01 435.465 / 435.565
Gurwin Techsat 1B 10 Dec 12:29:21 12:34:27 50° 70° (ENE) 12:39:35 435.225
CUBEBUG 1 10 Dec 12:31:06 12:35:10 36° 291° (WNW) 12:39:14 437.445
BEESAT 2 10 Dec 12:31:59 12:35:58 58° 51° (NE) 12:39:58 435.950
ESTCUBE 1 10 Dec 12:32:52 12:36:29 24° 294° (WNW) 12:40:06 437.505/2401.250
ITAMSAT 1 10 Dec 12:35:50 12:38:44 15° 58° (ENE) 12:41:38 435.822/435.867
UKube-1 10 Dec 12:48:31 12:52:53 88° 289° (WNW) 12:57:13 .
SPROUT 10 Dec 12:51:00 12:55:07 46° 288° (WNW) 12:59:12 437.525
DX 1 10 Dec 12:51:15 12:55:36 62° 287° (WNW) 12:59:56 434.975-435.025
VELOX 1 10 Dec 12:54:47 12:58:46 32° 292° (WNW) 13:02:43 145.980
50 SAT 10 Dec 13:28:10 13:29:33 12° 297° (WNW) 13:30:56 437.505
BEESAT 3 10 Dec 13:30:53 13:33:29 17° 249° (WSW) 13:36:04 437.485
AO-7 10 Dec 13:32:39 13:40:25 46° 61° (ENE) 13:48:13 29.400- 29.500
ITUPSAT 1 10 Dec 13:33:09 13:36:11 17° 91° (E) 13:39:12 437.325
RS-15 10 Dec 13:34:31 13:46:10 43° 34° (NNE) 13:57:34 29.354- 29.394
Oscar 19 10 Dec 13:34:34 13:38:40 24° 267° (W) 13:42:48 437.125/150
ISS 10 Dec 13:52:32 13:55:14 23° 137° (SE) 13:57:55 145.825
TISAT 1 10 Dec 13:55:04 13:59:13 56° 287° (WNW) 14:03:19 437.305
AUBIESAT-1 10 Dec 14:04:55 14:08:23 21° 97° (E) 14:11:42 437.475
AIST 2 10 Dec 14:05:29 14:08:41 20° 41° (NE) 14:11:53 435.215
Gurwin Techsat 1B 10 Dec 14:10:31 14:14:39 23° 267° (W) 14:18:50 435.225
BEESAT 2 10 Dec 14:11:06 14:13:19 14° 250° (WSW) 14:15:32 435.950
ITAMSAT 1 10 Dec 14:12:17 14:17:31 83° 256° (WSW) 14:22:46 435.822/435.867
M-CUBED/EXP-1 PRIME 10 Dec 14:20:55 14:25:16 38° 102° (ESE) 14:29:23 437.505
UKube-1 10 Dec 14:27:38 14:28:12 10° 302° (WNW) 14:28:45 .
SWISSCUBE 10 Dec 14:35:02 14:39:47 77° 103° (ESE) 14:44:32 437.505
